"Pseudo-MPEC" for C3ZPG22

Created 2020 Nov 22 15:07:10 UT using Find_Orb

Click here for an explanation of pseudo-MPECs

 
 Astrometry: 
     C3ZPG22  C2020 11 20.22800605 28 00.19 +58 44 52.5    ~BKBM 21.13GVNEOCPG96
     C3ZPG22  C2020 11 20.23324305 27 57.64 +58 44 40.3    ~BKBM 21.53GVNEOCPG96
     C3ZPG22  C2020 11 20.23849405 27 55.08 +58 44 27.6    ~BKBM 21.22GVNEOCPG96
     C3ZPG22 KC2020 11 20.44742405 26 12.16 +58 35 29.9    ~BKBb 20.76GVNEOCPI52
     C3ZPG22 KC2020 11 20.45234205 26 09.76 +58 35 16.4    ~BKBb 21.01GVNEOCPI52
     C3ZPG22 KC2020 11 20.45486105 26 08.50 +58 35 09.5    ~BKBb 20.93GVNEOCPI52
     C3ZPG22 KC2020 11 20.45738105 26 07.29 +58 35 02.3    ~BKBb 21.12GVNEOCPI52
     C3ZPG22 1C2020 11 20.74975 05 23 50.79 +58 21 41.8    ~BKIb 22.5 VVNEOCP033
     C3ZPG22 1C2020 11 20.75311 05 23 49.19 +58 21 33.7    ~BKIb 22.7 VVNEOCP033
     C3ZPG22 1C2020 11 20.75646 05 23 47.59 +58 21 24.8    ~BKIb 23.2 VVNEOCP033
     C3ZPG22 KC2020 11 21.26183405 20 43.24 +58 00 04.7    ~BL77x21.58GVNEOCPI52
     C3ZPG22 KC2020 11 21.26643705 20 41.22 +57 59 54.4    ~BL77x21.03GVNEOCPI52
     C3ZPG22 KC2020 11 21.27104005 20 39.20 +57 59 43.2    ~BL77x21.08GVNEOCPI52
     C3ZPG22 KC2020 11 22.21389705 14 44.34 +57 19 26.5    ~BM5qx      VNEOCPI52
     C3ZPG22 KC2020 11 22.22003805 14 41.97 +57 19 12.7    ~BM5qx21.91GVNEOCPI52
     C3ZPG22 KC2020 11 22.22617905 14 39.54 +57 18 59.0    ~BM5qx21.29GVNEOCPI52

Station data:
(033) Karl Schwarzschild Observatory, Tautenburg  (N50.980140 E11.711240)
   Germany. 1.3-m Schmidt.
(G96) Mt. Lemmon Survey  (N32.442754 W110.788720)  US/Arizona.  Observers T.
   A. Pruyne, B. M. Africano, E. J. Christensen, G. A. Farneth, D. C. Fuls,
   A. R. Gibbs, A. D. Grauer, H. Gröller, J. A. Johnson, R. A. Kowalski, S.
   M. Larson, G. J. Leonard, D. Rankin, R. L. Seaman, F. C. Shelly. 1.5-m
   reflector + 10K CCD.
(I52) Steward Observatory, Mt. Lemmon Station  (N32.442547 W110.788920)
   US/Arizona.  Observers T. A. Pruyne, B. M. Africano, E. J. Christensen, G.
   A. Farneth, D. C. Fuls, A. R. Gibbs, A. D. Grauer, H. Gröller, J. A.
   Johnson, R. A. Kowalski, S. M. Larson, G. J. Leonard, D. Rankin, R. L.
   Seaman, F. C. Shelly. 1.0-m reflector + CCD.

Orbital elements:  C3ZPG22
   Perihelion 2021 Apr 12.845537 TT = 20:17:34 (JD 2459317.345537)
Epoch 2020 Nov 20.0 TT = JDT 2459173.5   Earth MOID: 0.2015   Ve: 0.0891
M 206.96359131                      (J2000 ecliptic)
n   1.06389403     Peri.  331.57995
a   0.95032130     Node   255.02343
e   0.3523785      Incl.   40.21064
P   0.93/338.37d   H   22.3     G   0.15   q 0.61544846  Q 1.28519415
10 of 16 observations 2020 Nov. 20 (12.7 hr); mean residual 0".26
Residuals in arcseconds: 
201120 G96  .00   .58-    201120 I52  .15+  .49-    201121 I52( 477+  113+)   
201120 G96  .00   .16+    201120 033  .03-  .44-    201122 I52(1314+  539+)   
201120 G96  .01-  .45+    201120 033  .01+  .28+    201122 I52(1320+  544+)   
201120 I52  .11-  .41+    201120 033  .02+  .17+    201122 I52(1325+  549+)   
201120 I52  .07+  .09+    201121 I52( 472+  108+)   
201120 I52  .09-  .06-    201121 I52( 474+  111+)   

Ephemerides (geocentric):
Date (UTC) HH   RA              Dec         delta   r     elong  mag " sig PA
---- -- -- --  -------------   -----------  ------ ------ -----  --- ---- ---
2020 11 22 15  05 08 39.193   +56 48 16.63  .32956 1.2605 140.9 21.7 1032  55
2020 11 22 16  05 08 18.818   +56 45 59.10  .32923 1.2604 141.0 21.7 1072  55
2020 11 22 17  05 07 58.438   +56 43 41.00  .32891 1.2603 141.0 21.7 1114  55
2020 11 22 18  05 07 38.054   +56 41 22.33  .32859 1.2603 141.1 21.7 1157  55
2020 11 22 19  05 07 17.667   +56 39 03.08  .32827 1.2602 141.2 21.7 1200  55
2020 11 22 20  05 06 57.275   +56 36 43.25  .32795 1.2601 141.3 21.6 1244  55
2020 11 22 21  05 06 36.879   +56 34 22.85  .32763 1.2600 141.3 21.6 1289  54
2020 11 22 22  05 06 16.480   +56 32 01.86  .32731 1.2600 141.4 21.6 1335  54
2020 11 22 23  05 05 56.078   +56 29 40.30  .32699 1.2599 141.5 21.6 1381  54
2020 11 23 00  05 05 35.672   +56 27 18.16  .32667 1.2598 141.6 21.6 1429  54
2020 11 23 01  05 05 15.264   +56 24 55.44  .32635 1.2598 141.6 21.6 1477  54
2020 11 23 02  05 04 54.853   +56 22 32.13  .32603 1.2597 141.7 21.6 1526  54
2020 11 23 03  05 04 34.439   +56 20 08.24  .32572 1.2596 141.8 21.6 1576  53
2020 11 23 04  05 04 14.022   +56 17 43.76  .32540 1.2595 141.9 21.6 1626  53
2020 11 23 05  05 03 53.603   +56 15 18.70  .32508 1.2595 141.9 21.6 1678  53
2020 11 23 06  05 03 33.182   +56 12 53.04  .32477 1.2594 142.0 21.6 1730  53
2020 11 23 07  05 03 12.760   +56 10 26.80  .32445 1.2593 142.1 21.6 1783  53
2020 11 23 08  05 02 52.335   +56 07 59.97  .32414 1.2592 142.2 21.6 1836  53
2020 11 23 09  05 02 31.909   +56 05 32.55  .32382 1.2591 142.2 21.6 1891  53
2020 11 23 10  05 02 11.481   +56 03 04.53  .32351 1.2591 142.3 21.6 1946  53
2020 11 23 11  05 01 51.053   +56 00 35.92  .32320 1.2590 142.4 21.6 2003  52
2020 11 23 12  05 01 30.623   +55 58 06.72  .32289 1.2589 142.5 21.6 2060  52
2020 11 23 13  05 01 10.192   +55 55 36.92  .32257 1.2588 142.6 21.6 2117  52
2020 11 23 14  05 00 49.761   +55 53 06.52  .32226 1.2588 142.6 21.6 2176  52
2020 11 23 15  05 00 29.329   +55 50 35.52  .32195 1.2587 142.7 21.6 2235  52
2020 11 23 16  05 00 08.897   +55 48 03.93  .32164 1.2586 142.8 21.6 2296  52
2020 11 23 17  04 59 48.465   +55 45 31.73  .32133 1.2585 142.9 21.6 2357  52
2020 11 23 18  04 59 28.032   +55 42 58.94  .32102 1.2585 142.9 21.6 2419  52
2020 11 23 19  04 59 07.600   +55 40 25.54  .32071 1.2584 143.0 21.6 2481  51
2020 11 23 20  04 58 47.169   +55 37 51.54  .32040 1.2583 143.1 21.6 2545  51
2020 11 23 21  04 58 26.738   +55 35 16.93  .32010 1.2582 143.2 21.6 2609  51
2020 11 23 22  04 58 06.307   +55 32 41.72  .31979 1.2582 143.2 21.5 2674  51
2020 11 23 23  04 57 45.878   +55 30 05.90  .31948 1.2581 143.3 21.5 2740  51
2020 11 24 00  04 57 25.449   +55 27 29.47  .31918 1.2580 143.4 21.5 2807  51
2020 11 24 01  04 57 05.022   +55 24 52.43  .31887 1.2579 143.5 21.5 2874  51
2020 11 24 02  04 56 44.597   +55 22 14.78  .31857 1.2578 143.6 21.5 2942  51
2020 11 24 03  04 56 24.173   +55 19 36.53  .31826 1.2578 143.6 21.5 3011  51
2020 11 24 04  04 56 03.751   +55 16 57.66  .31796 1.2577 143.7 21.5 3081  50
2020 11 24 05  04 55 43.330   +55 14 18.18  .31766 1.2576 143.8 21.5 3152  50
2020 11 24 06  04 55 22.912   +55 11 38.08  .31735 1.2575 143.9 21.5 3224  50
2020 11 24 07  04 55 02.497   +55 08 57.37  .31705 1.2575 143.9 21.5 3296  50
2020 11 24 08  04 54 42.083   +55 06 16.04  .31675 1.2574 144.0 21.5 3369  50
2020 11 24 09  04 54 21.673   +55 03 34.10  .31645 1.2573 144.1 21.5 3443  50
2020 11 24 10  04 54 01.265   +55 00 51.53  .31615 1.2572 144.2 21.5 3518  50
2020 11 24 11  04 53 40.861   +54 58 08.35  .31585 1.2571 144.3 21.5 3593  50
2020 11 24 12  04 53 20.459   +54 55 24.55  .31555 1.2571 144.3 21.5 3670  50
2020 11 24 13  04 53 00.061   +54 52 40.13  .31525 1.2570 144.4 21.5 3747  49
2020 11 24 14  04 52 39.667   +54 49 55.09  .31495 1.2569 144.5 21.5 3825  49